Year,Month,Day,Hour,Minute,Value (Times are PST for temperature in C)
2021,12,06,00,00,1.60
2021,12,06,00,01,1.60
2021,12,06,00,02,1.60
2021,12,06,00,03,1.60
2021,12,06,00,04,1.60
2021,12,06,00,05,1.60
2021,12,06,00,06,1.60
2021,12,06,00,07,1.60
2021,12,06,00,08,1.60
2021,12,06,00,09,1.50
2021,12,06,00,10,1.50
2021,12,06,00,11,1.50
2021,12,06,00,12,1.50
2021,12,06,00,13,1.50
2021,12,06,00,14,1.40
2021,12,06,00,15,1.40
2021,12,06,00,16,1.40
2021,12,06,00,17,1.40
2021,12,06,00,18,1.30
2021,12,06,00,19,1.30
2021,12,06,00,20,1.30
2021,12,06,00,21,1.30
2021,12,06,00,22,1.30
2021,12,06,00,23,1.30
2021,12,06,00,24,1.30
2021,12,06,00,25,1.30
2021,12,06,00,26,1.30
2021,12,06,00,27,1.30
2021,12,06,00,28,1.30
2021,12,06,00,29,1.30
2021,12,06,00,30,1.30
2021,12,06,00,31,1.30
2021,12,06,00,32,1.30
2021,12,06,00,33,1.30
2021,12,06,00,34,1.30
2021,12,06,00,35,1.30
2021,12,06,00,36,1.30
2021,12,06,00,37,1.20
2021,12,06,00,38,1.20
2021,12,06,00,39,1.20
2021,12,06,00,40,1.20
2021,12,06,00,41,1.20
2021,12,06,00,42,1.20
2021,12,06,00,43,1.20
2021,12,06,00,44,1.20
2021,12,06,00,45,1.20
2021,12,06,00,46,1.10
2021,12,06,00,47,1.10
2021,12,06,00,48,1.10
2021,12,06,00,49,1.10
2021,12,06,00,50,1.10
2021,12,06,00,51,1.10
2021,12,06,00,52,1.10
2021,12,06,00,53,1.10
2021,12,06,00,54,1.10
2021,12,06,00,55,1.10
2021,12,06,00,56,1.20
2021,12,06,00,57,1.20
2021,12,06,00,58,1.20
2021,12,06,00,59,1.20
2021,12,06,01,00,1.20
2021,12,06,01,01,1.20
2021,12,06,01,02,1.20
2021,12,06,01,03,1.20
2021,12,06,01,04,1.20
2021,12,06,01,05,1.20
2021,12,06,01,06,1.20
2021,12,06,01,07,1.20
2021,12,06,01,08,1.20
2021,12,06,01,09,1.20
2021,12,06,01,10,1.20
2021,12,06,01,11,1.20
2021,12,06,01,12,1.20
2021,12,06,01,13,1.20
2021,12,06,01,14,1.20
2021,12,06,01,15,1.10
2021,12,06,01,16,1.10
2021,12,06,01,17,1.10
2021,12,06,01,18,1.10
2021,12,06,01,19,1.10
2021,12,06,01,20,1.10
2021,12,06,01,21,1.10
2021,12,06,01,22,1.10
2021,12,06,01,23,1.10
2021,12,06,01,24,1.10
2021,12,06,01,25,1.10
2021,12,06,01,26,1.00
2021,12,06,01,27,1.00
2021,12,06,01,28,1.00
2021,12,06,01,29,1.00
2021,12,06,01,30,1.00
2021,12,06,01,31,1.00
2021,12,06,01,32,1.00
2021,12,06,01,33,1.00
2021,12,06,01,34,1.00
2021,12,06,01,35,1.00
2021,12,06,01,36,1.00
2021,12,06,01,37,1.00
2021,12,06,01,38,1.00
2021,12,06,01,39,1.00
2021,12,06,01,40,1.00
2021,12,06,01,41,1.00
2021,12,06,01,42,1.00
2021,12,06,01,43,1.00
2021,12,06,01,44,1.00
2021,12,06,01,45,1.00
2021,12,06,01,46,1.00
2021,12,06,01,47,1.00
2021,12,06,01,48,1.00
2021,12,06,01,49,1.00
2021,12,06,01,50,1.00
2021,12,06,01,51,1.00
2021,12,06,01,52,0.90
2021,12,06,01,53,0.90
2021,12,06,01,54,0.90
2021,12,06,01,55,1.00
2021,12,06,01,56,1.00
2021,12,06,01,57,1.00
2021,12,06,01,58,1.00
2021,12,06,01,59,1.00
2021,12,06,02,00,1.00
2021,12,06,02,01,1.00
2021,12,06,02,02,1.00
2021,12,06,02,03,1.00
2021,12,06,02,04,1.00
2021,12,06,02,05,0.90
2021,12,06,02,06,0.90
2021,12,06,02,07,0.90
2021,12,06,02,08,0.90
2021,12,06,02,09,1.00
2021,12,06,02,10,1.00
2021,12,06,02,11,1.00
2021,12,06,02,12,1.00
2021,12,06,02,13,1.00
2021,12,06,02,14,0.90
2021,12,06,02,15,0.90
2021,12,06,02,16,0.90
2021,12,06,02,17,0.90
2021,12,06,02,18,0.90
2021,12,06,02,19,0.90
2021,12,06,02,20,0.90
2021,12,06,02,21,0.90
2021,12,06,02,22,0.90
2021,12,06,02,23,0.90
2021,12,06,02,24,0.90
2021,12,06,02,25,0.90
2021,12,06,02,26,0.90
2021,12,06,02,27,1.00
2021,12,06,02,28,1.00
2021,12,06,02,29,1.00
2021,12,06,02,30,1.10
2021,12,06,02,31,1.10
2021,12,06,02,32,1.10
2021,12,06,02,33,1.10
2021,12,06,02,34,1.10
2021,12,06,02,35,1.20
2021,12,06,02,36,1.20
2021,12,06,02,37,1.20
2021,12,06,02,38,1.20
2021,12,06,02,39,1.20
2021,12,06,02,40,1.20
2021,12,06,02,41,1.30
2021,12,06,02,42,1.30
2021,12,06,02,43,1.30
2021,12,06,02,44,1.30
2021,12,06,02,45,1.40
2021,12,06,02,46,1.40
2021,12,06,02,47,1.40
2021,12,06,02,48,1.40
2021,12,06,02,49,1.50
2021,12,06,02,50,1.50
2021,12,06,02,51,1.50
2021,12,06,02,52,1.50
2021,12,06,02,53,1.50
2021,12,06,02,54,1.50
2021,12,06,02,55,1.50
2021,12,06,02,56,1.50
2021,12,06,02,57,1.60
2021,12,06,02,58,1.60
2021,12,06,02,59,1.60
2021,12,06,03,00,1.60
2021,12,06,03,01,1.60
2021,12,06,03,02,1.60
2021,12,06,03,03,1.60
2021,12,06,03,04,1.70
2021,12,06,03,05,1.70
2021,12,06,03,06,1.70
2021,12,06,03,07,1.70
2021,12,06,03,08,1.70
2021,12,06,03,09,1.70
2021,12,06,03,10,1.70
2021,12,06,03,11,1.70
2021,12,06,03,12,1.80
2021,12,06,03,13,1.80
2021,12,06,03,14,1.80
2021,12,06,03,15,1.80
2021,12,06,03,16,1.80
2021,12,06,03,17,1.80
2021,12,06,03,18,1.80
2021,12,06,03,19,1.80
2021,12,06,03,20,1.80
2021,12,06,03,21,1.80
2021,12,06,03,22,1.80
2021,12,06,03,23,1.80
2021,12,06,03,24,1.90
2021,12,06,03,25,1.90
2021,12,06,03,26,1.90
2021,12,06,03,27,1.90
2021,12,06,03,28,1.90
2021,12,06,03,29,1.90
2021,12,06,03,30,1.90
2021,12,06,03,31,1.90
2021,12,06,03,32,1.90
2021,12,06,03,33,1.90
2021,12,06,03,34,2.00
2021,12,06,03,35,2.00
2021,12,06,03,36,2.00
2021,12,06,03,37,2.00
2021,12,06,03,38,2.00
2021,12,06,03,39,2.00
2021,12,06,03,40,2.00
2021,12,06,03,41,2.00
2021,12,06,03,42,2.00
2021,12,06,03,43,2.00
2021,12,06,03,44,2.10
2021,12,06,03,45,2.10
2021,12,06,03,46,2.10
2021,12,06,03,47,2.10
2021,12,06,03,48,2.10
2021,12,06,03,49,2.10
2021,12,06,03,50,2.10
2021,12,06,03,51,2.10
2021,12,06,03,52,2.10
2021,12,06,03,53,2.20
2021,12,06,03,54,2.20
2021,12,06,03,55,2.20
2021,12,06,03,56,2.20
2021,12,06,03,57,2.20
2021,12,06,03,58,2.20
2021,12,06,03,59,2.20
2021,12,06,04,00,2.30
2021,12,06,04,01,2.30
2021,12,06,04,02,2.30
2021,12,06,04,03,2.30
2021,12,06,04,04,2.30
2021,12,06,04,08,2.30
2021,12,06,04,09,2.30
2021,12,06,04,10,2.30
2021,12,06,04,11,2.30
2021,12,06,04,12,2.20
2021,12,06,04,13,2.20
2021,12,06,04,14,2.20
2021,12,06,04,15,2.20
2021,12,06,04,16,2.20
2021,12,06,04,17,2.20
2021,12,06,04,18,2.10
2021,12,06,04,19,2.00
2021,12,06,04,20,2.00
2021,12,06,04,21,1.90
2021,12,06,04,22,1.90
2021,12,06,04,23,1.80
2021,12,06,04,24,1.80
2021,12,06,04,25,1.80
2021,12,06,04,26,1.80
2021,12,06,04,27,1.80
2021,12,06,04,28,1.70
2021,12,06,04,29,1.70
2021,12,06,04,30,1.70
2021,12,06,04,31,1.70
2021,12,06,04,32,1.70
2021,12,06,04,33,1.80
2021,12,06,04,34,1.70
2021,12,06,04,35,1.70
2021,12,06,04,36,1.70
2021,12,06,04,37,1.70
2021,12,06,04,38,1.70
2021,12,06,04,39,1.60
2021,12,06,04,40,1.60
2021,12,06,04,41,1.60
2021,12,06,04,42,1.60
2021,12,06,04,43,1.60
2021,12,06,04,44,1.60
2021,12,06,04,45,1.50
2021,12,06,04,46,1.50
2021,12,06,04,47,1.50
2021,12,06,04,48,1.50
2021,12,06,04,49,1.40
2021,12,06,04,50,1.40
2021,12,06,04,51,1.40
2021,12,06,04,52,1.30
2021,12,06,04,53,1.30
2021,12,06,04,54,1.30
2021,12,06,04,55,1.30
2021,12,06,04,56,1.20
2021,12,06,04,57,1.20
2021,12,06,04,58,1.20
2021,12,06,04,59,1.20
2021,12,06,05,00,1.20
2021,12,06,05,01,1.20
2021,12,06,05,02,1.20
2021,12,06,05,03,1.10
2021,12,06,05,04,1.10
2021,12,06,05,05,1.10
2021,12,06,05,06,1.10
2021,12,06,05,07,1.10
2021,12,06,05,08,1.00
2021,12,06,05,09,1.00
2021,12,06,05,10,1.10
2021,12,06,05,11,1.10
2021,12,06,05,12,1.10
2021,12,06,05,13,1.10
2021,12,06,05,14,1.10
2021,12,06,05,15,1.10
2021,12,06,05,16,1.00
2021,12,06,05,17,1.00
2021,12,06,05,18,0.90
2021,12,06,05,19,0.90
2021,12,06,05,20,0.90
2021,12,06,05,21,0.80
2021,12,06,05,22,0.80
2021,12,06,05,23,0.90
2021,12,06,05,24,0.90
2021,12,06,05,25,0.90
2021,12,06,05,26,1.00
2021,12,06,05,27,1.00
2021,12,06,05,28,1.10
2021,12,06,05,29,1.10
2021,12,06,05,30,1.10
2021,12,06,05,31,1.20
2021,12,06,05,32,1.20
2021,12,06,05,33,1.30
2021,12,06,05,34,1.30
2021,12,06,05,35,1.30
2021,12,06,05,36,1.30
2021,12,06,05,37,1.40
2021,12,06,05,38,1.40
2021,12,06,05,39,1.40
2021,12,06,05,40,1.40
2021,12,06,05,41,1.30
2021,12,06,05,42,1.30
2021,12,06,05,43,1.30
2021,12,06,05,44,1.20
2021,12,06,05,45,1.20
2021,12,06,05,46,1.20
2021,12,06,05,47,1.20
2021,12,06,05,48,1.20
2021,12,06,05,49,1.20
2021,12,06,05,50,1.20
2021,12,06,05,51,1.20
2021,12,06,05,52,1.20
2021,12,06,05,53,1.20
2021,12,06,05,54,1.20
2021,12,06,05,55,1.20
2021,12,06,05,56,1.20
2021,12,06,05,57,1.20
2021,12,06,05,58,1.20
2021,12,06,05,59,1.20
2021,12,06,06,00,1.20
2021,12,06,06,01,1.20
2021,12,06,06,02,1.20
2021,12,06,06,03,1.20
2021,12,06,06,04,1.20
2021,12,06,06,05,1.10
2021,12,06,06,06,1.10
2021,12,06,06,07,1.10
2021,12,06,06,08,1.10
2021,12,06,06,09,1.10
2021,12,06,06,10,1.10
2021,12,06,06,11,1.10
2021,12,06,06,12,1.10
2021,12,06,06,13,1.10
2021,12,06,06,14,1.10
2021,12,06,06,15,1.10
2021,12,06,06,16,1.10
2021,12,06,06,17,1.20
2021,12,06,06,18,1.20
2021,12,06,06,19,1.20
2021,12,06,06,20,1.20
2021,12,06,06,21,1.20
2021,12,06,06,22,1.20
2021,12,06,06,23,1.20
2021,12,06,06,24,1.20
2021,12,06,06,25,1.20
2021,12,06,06,26,1.20
2021,12,06,06,27,1.20
2021,12,06,06,28,1.30
2021,12,06,06,29,1.30
2021,12,06,06,30,1.30
2021,12,06,06,31,1.30
2021,12,06,06,32,1.30
2021,12,06,06,33,1.30
2021,12,06,06,34,1.30
2021,12,06,06,35,1.30
2021,12,06,06,36,1.30
2021,12,06,06,37,1.30
2021,12,06,06,38,1.30
2021,12,06,06,39,1.30
2021,12,06,06,40,1.30
2021,12,06,06,41,1.30
2021,12,06,06,42,1.30
2021,12,06,06,43,1.30
2021,12,06,06,44,1.30
2021,12,06,06,45,1.40
2021,12,06,06,46,1.40
2021,12,06,06,47,1.40
2021,12,06,06,48,1.40
2021,12,06,06,49,1.40
2021,12,06,06,50,1.40
2021,12,06,06,51,1.40
2021,12,06,06,52,1.40
2021,12,06,06,53,1.40
2021,12,06,06,54,1.40
2021,12,06,06,55,1.40
2021,12,06,06,56,1.40
2021,12,06,06,57,1.30
2021,12,06,06,58,1.30
2021,12,06,06,59,1.30
2021,12,06,07,00,1.30
2021,12,06,07,01,1.30
2021,12,06,07,02,1.30
2021,12,06,07,03,1.30
2021,12,06,07,04,1.30
2021,12,06,07,05,1.30
2021,12,06,07,06,1.30
2021,12,06,07,07,1.30
2021,12,06,07,08,1.30
2021,12,06,07,09,1.30
2021,12,06,07,10,1.30
2021,12,06,07,11,1.30
2021,12,06,07,12,1.30
2021,12,06,07,13,1.30
2021,12,06,07,14,1.30
2021,12,06,07,15,1.40
2021,12,06,07,16,1.50
2021,12,06,07,17,1.50
2021,12,06,07,18,1.60
2021,12,06,07,19,1.60
2021,12,06,07,20,1.60
2021,12,06,07,21,1.50
2021,12,06,07,22,1.50
2021,12,06,07,23,1.50
2021,12,06,07,24,1.50
2021,12,06,07,25,1.40
2021,12,06,07,26,1.40
2021,12,06,07,27,1.50
2021,12,06,07,28,1.50
2021,12,06,07,29,1.50
2021,12,06,07,30,1.50
2021,12,06,07,31,1.50
2021,12,06,07,32,1.60
2021,12,06,07,33,1.60
2021,12,06,07,34,1.60
2021,12,06,07,35,1.60
2021,12,06,07,36,1.60
2021,12,06,07,37,1.60
2021,12,06,07,38,1.60
2021,12,06,07,39,1.60
2021,12,06,07,40,1.60
2021,12,06,07,41,1.60
2021,12,06,07,42,1.70
2021,12,06,07,43,1.70
2021,12,06,07,44,1.80
2021,12,06,07,45,1.80
2021,12,06,07,46,1.80
2021,12,06,07,47,1.80
2021,12,06,07,48,1.80
2021,12,06,07,49,1.80
2021,12,06,07,50,1.80
2021,12,06,07,51,1.80
2021,12,06,07,52,1.80
2021,12,06,07,53,1.80
2021,12,06,07,54,1.90
2021,12,06,07,55,1.90
2021,12,06,07,56,1.90
2021,12,06,07,57,1.90
2021,12,06,07,58,2.00
2021,12,06,07,59,2.00
2021,12,06,08,00,1.90
2021,12,06,08,01,1.90
2021,12,06,08,02,1.90
2021,12,06,08,03,1.90
2021,12,06,08,04,1.90
2021,12,06,08,05,1.90
2021,12,06,08,06,2.00
2021,12,06,08,07,2.00
2021,12,06,08,08,2.00
2021,12,06,08,09,2.00
2021,12,06,08,10,2.00
2021,12,06,08,11,2.00
2021,12,06,08,12,2.00
2021,12,06,08,13,2.00
2021,12,06,08,14,2.00
2021,12,06,08,15,2.00
2021,12,06,08,16,2.00
2021,12,06,08,17,2.10
2021,12,06,08,18,2.10
2021,12,06,08,19,2.10
2021,12,06,08,20,2.10
2021,12,06,08,21,2.10
2021,12,06,08,22,2.10
2021,12,06,08,23,2.10
2021,12,06,08,24,2.10
2021,12,06,08,25,2.10
2021,12,06,08,26,2.10
2021,12,06,08,27,2.20
2021,12,06,08,28,2.20
2021,12,06,08,29,2.20
2021,12,06,08,30,2.30
2021,12,06,08,31,2.30
2021,12,06,08,32,2.30
2021,12,06,08,33,2.40
2021,12,06,08,34,2.40
2021,12,06,08,35,2.40
2021,12,06,08,36,2.40
2021,12,06,08,37,2.40
2021,12,06,08,38,2.40
2021,12,06,08,39,2.40
2021,12,06,08,40,2.50
2021,12,06,08,41,2.40
2021,12,06,08,42,2.40
2021,12,06,08,43,2.40
2021,12,06,08,44,2.50
2021,12,06,08,45,2.50
2021,12,06,08,46,2.60
2021,12,06,08,47,2.60
2021,12,06,08,48,2.70
2021,12,06,08,49,2.70
2021,12,06,08,50,2.70
2021,12,06,08,51,2.70
2021,12,06,08,52,2.80
2021,12,06,08,53,2.80
2021,12,06,08,54,2.80
2021,12,06,08,55,2.80
2021,12,06,08,56,2.80
2021,12,06,08,57,2.80
2021,12,06,08,58,2.80
2021,12,06,08,59,2.90
2021,12,06,09,00,2.90
2021,12,06,09,01,2.90
2021,12,06,09,02,2.90
2021,12,06,09,03,2.90
2021,12,06,09,04,2.90
2021,12,06,09,05,2.90
2021,12,06,09,06,2.90
2021,12,06,09,07,2.90
2021,12,06,09,08,2.90
2021,12,06,09,09,2.90
2021,12,06,09,10,2.90
2021,12,06,09,11,2.90
2021,12,06,09,12,2.90
2021,12,06,09,13,2.90
2021,12,06,09,14,2.90
2021,12,06,09,15,2.90
2021,12,06,09,16,2.90
2021,12,06,09,17,3.00
2021,12,06,09,18,3.00
2021,12,06,09,19,3.00
2021,12,06,09,20,3.10
2021,12,06,09,21,3.10
2021,12,06,09,22,3.10
2021,12,06,09,23,3.10
2021,12,06,09,24,3.10
2021,12,06,09,25,3.10
2021,12,06,09,26,3.10
2021,12,06,09,27,3.10
2021,12,06,09,28,3.10
2021,12,06,09,29,3.10
2021,12,06,09,30,3.20
2021,12,06,09,31,3.20
2021,12,06,09,32,3.20
2021,12,06,09,33,3.20
2021,12,06,09,34,3.20
2021,12,06,09,35,3.20
2021,12,06,09,36,3.10
2021,12,06,09,37,3.00
2021,12,06,09,38,2.90
2021,12,06,09,39,2.80
2021,12,06,09,40,2.70
2021,12,06,09,41,2.60
2021,12,06,09,42,2.60
2021,12,06,09,43,2.60
2021,12,06,09,44,2.60
2021,12,06,09,45,2.60
2021,12,06,09,46,2.60
2021,12,06,09,47,2.60
2021,12,06,09,48,2.60
2021,12,06,09,49,2.50
2021,12,06,09,50,2.50
2021,12,06,09,51,2.50
2021,12,06,09,52,2.60
2021,12,06,09,53,2.60
2021,12,06,09,54,2.50
2021,12,06,09,55,2.50
2021,12,06,09,56,2.50
2021,12,06,09,57,2.50
2021,12,06,09,58,2.50
2021,12,06,09,59,2.40
2021,12,06,10,00,2.40
2021,12,06,10,01,2.40
2021,12,06,10,02,2.40
2021,12,06,10,03,2.40
2021,12,06,10,04,2.40
2021,12,06,10,05,2.40
2021,12,06,10,06,2.40
2021,12,06,10,07,2.40
2021,12,06,10,08,2.40
2021,12,06,10,09,2.40
2021,12,06,10,10,2.40
2021,12,06,10,11,2.40
2021,12,06,10,12,2.40
2021,12,06,10,13,2.40
2021,12,06,10,14,2.30
2021,12,06,10,15,2.30
2021,12,06,10,16,2.40
2021,12,06,10,17,2.50
2021,12,06,10,18,2.50
2021,12,06,10,19,2.60
2021,12,06,10,20,2.70
2021,12,06,10,21,2.70
2021,12,06,10,22,2.70
2021,12,06,10,23,2.70
2021,12,06,10,24,2.70
2021,12,06,10,25,2.70
2021,12,06,10,26,2.70
2021,12,06,10,27,2.70
2021,12,06,10,28,2.70
2021,12,06,10,29,2.70
2021,12,06,10,30,2.80
2021,12,06,10,31,2.80
2021,12,06,10,32,2.80
2021,12,06,10,33,2.80
2021,12,06,10,34,2.80
2021,12,06,10,35,2.80
2021,12,06,10,36,2.80
2021,12,06,10,37,2.80
2021,12,06,10,38,2.90
2021,12,06,10,39,2.90
2021,12,06,10,40,2.90
2021,12,06,10,41,2.90
2021,12,06,10,42,2.90
2021,12,06,10,43,2.80
2021,12,06,10,44,2.80
2021,12,06,10,45,2.90
2021,12,06,10,46,2.90
2021,12,06,10,47,2.90
2021,12,06,10,48,2.90
2021,12,06,10,49,2.80
2021,12,06,10,50,2.80
2021,12,06,10,51,2.80
2021,12,06,10,52,2.80
2021,12,06,10,53,2.80
2021,12,06,10,54,2.70
2021,12,06,10,55,2.60
2021,12,06,10,56,2.60
2021,12,06,10,57,2.60
2021,12,06,10,58,2.70
2021,12,06,10,59,2.70
2021,12,06,11,00,2.70
2021,12,06,11,01,2.60
2021,12,06,11,02,2.60
2021,12,06,11,03,2.60
2021,12,06,11,04,2.60
2021,12,06,11,05,2.60
2021,12,06,11,06,2.70
2021,12,06,11,07,2.70
2021,12,06,11,08,2.70
2021,12,06,11,09,2.70
2021,12,06,11,10,2.70
2021,12,06,11,11,2.70
2021,12,06,11,12,2.70
2021,12,06,11,13,2.70
2021,12,06,11,14,2.70
2021,12,06,11,15,2.70
2021,12,06,11,16,2.70
2021,12,06,11,17,2.70
2021,12,06,11,18,2.70
2021,12,06,11,19,2.70
2021,12,06,11,20,2.70
2021,12,06,11,21,2.70
2021,12,06,11,22,2.80
2021,12,06,11,23,2.80
2021,12,06,11,24,2.80
2021,12,06,11,25,2.80
2021,12,06,11,26,2.80
2021,12,06,11,27,2.80
2021,12,06,11,28,2.80
2021,12,06,11,29,2.80
2021,12,06,11,30,2.80
2021,12,06,11,31,2.80
2021,12,06,11,32,2.80
2021,12,06,11,33,2.70
2021,12,06,11,34,2.70
2021,12,06,11,35,2.70
2021,12,06,11,36,2.70
2021,12,06,11,37,2.70
2021,12,06,11,38,2.70
2021,12,06,11,39,2.70
2021,12,06,11,40,2.70
2021,12,06,11,41,2.70
2021,12,06,11,42,2.70
2021,12,06,11,43,2.70
2021,12,06,11,44,2.70
2021,12,06,11,45,2.70
2021,12,06,11,46,2.70
2021,12,06,11,47,2.70
2021,12,06,11,48,2.70
2021,12,06,11,49,2.70
2021,12,06,11,50,2.70
2021,12,06,11,51,2.70
2021,12,06,11,52,2.70
2021,12,06,11,53,2.80
2021,12,06,11,54,2.80
2021,12,06,11,55,2.80
2021,12,06,11,56,2.80
2021,12,06,11,57,2.90
2021,12,06,11,58,2.90
2021,12,06,11,59,3.00
2021,12,06,12,00,2.90
2021,12,06,12,01,3.00
2021,12,06,12,02,3.00
2021,12,06,12,03,3.00
2021,12,06,12,04,3.10
2021,12,06,12,05,3.10
2021,12,06,12,06,3.20
2021,12,06,12,07,3.20
2021,12,06,12,08,3.30
2021,12,06,12,09,3.40
2021,12,06,12,10,3.40
2021,12,06,12,11,3.50
2021,12,06,12,12,3.50
2021,12,06,12,13,3.50
2021,12,06,12,14,3.50
2021,12,06,12,15,3.50
2021,12,06,12,16,3.50
2021,12,06,12,17,3.50
2021,12,06,12,18,3.60
2021,12,06,12,19,3.60
2021,12,06,12,20,3.60
2021,12,06,12,21,3.50
2021,12,06,12,22,3.40
2021,12,06,12,23,3.40
2021,12,06,12,24,3.40
2021,12,06,12,25,3.50
2021,12,06,12,26,3.50
2021,12,06,12,27,3.60
2021,12,06,12,28,3.50
2021,12,06,12,29,3.50
2021,12,06,12,30,3.50
2021,12,06,12,31,3.50
2021,12,06,12,32,3.60
2021,12,06,12,33,3.60
2021,12,06,12,34,3.60
2021,12,06,12,35,3.60
2021,12,06,12,36,3.70
2021,12,06,12,37,3.70
2021,12,06,12,38,3.70
2021,12,06,12,39,3.70
2021,12,06,12,40,3.70
2021,12,06,12,41,3.70
2021,12,06,12,42,3.70
2021,12,06,12,43,3.70
2021,12,06,12,44,3.70
2021,12,06,12,45,3.70
2021,12,06,12,46,3.70
2021,12,06,12,47,3.70
2021,12,06,12,48,3.70
2021,12,06,12,49,3.80
2021,12,06,12,50,3.80
2021,12,06,12,51,3.80
2021,12,06,12,52,3.80
2021,12,06,12,53,3.80
2021,12,06,12,54,3.80
2021,12,06,12,55,3.80
2021,12,06,12,56,3.80
2021,12,06,12,57,3.80
2021,12,06,12,58,3.80
2021,12,06,12,59,3.80
2021,12,06,13,00,3.80
2021,12,06,13,01,3.80
2021,12,06,13,02,3.80
2021,12,06,13,03,3.80
2021,12,06,13,04,3.80
2021,12,06,13,05,3.80
2021,12,06,13,06,3.80
2021,12,06,13,07,3.80
2021,12,06,13,08,3.80
2021,12,06,13,09,3.80
2021,12,06,13,10,3.80
2021,12,06,13,11,3.80
2021,12,06,13,12,3.80
2021,12,06,13,13,3.80
2021,12,06,13,14,3.80
2021,12,06,13,15,3.80
2021,12,06,13,16,3.80
2021,12,06,13,17,3.80
2021,12,06,13,18,3.80
2021,12,06,13,19,3.80
2021,12,06,13,20,3.80
2021,12,06,13,21,3.80
2021,12,06,13,22,3.70
2021,12,06,13,23,3.70
2021,12,06,13,24,3.70
2021,12,06,13,25,3.70
2021,12,06,13,26,3.70
2021,12,06,13,27,3.70
2021,12,06,13,28,3.70
2021,12,06,13,29,3.70
2021,12,06,13,30,3.70
2021,12,06,13,31,3.70
2021,12,06,13,32,3.70
2021,12,06,13,33,3.70
2021,12,06,13,34,3.70
2021,12,06,13,35,3.70
2021,12,06,13,36,3.70
2021,12,06,13,37,3.70
2021,12,06,13,38,3.70
2021,12,06,13,39,3.70
2021,12,06,13,40,3.70
2021,12,06,13,41,3.70
2021,12,06,13,42,3.70
2021,12,06,13,43,3.70
2021,12,06,13,44,3.70
2021,12,06,13,45,3.70
2021,12,06,13,46,3.70
2021,12,06,13,47,3.70
2021,12,06,13,48,3.70
2021,12,06,13,49,3.70
2021,12,06,13,50,3.70
2021,12,06,13,51,3.70
2021,12,06,13,52,3.70
2021,12,06,13,53,3.80
2021,12,06,13,54,3.80
2021,12,06,13,55,3.80
2021,12,06,13,56,3.80
2021,12,06,13,57,3.80
2021,12,06,13,58,3.80
2021,12,06,13,59,3.80
2021,12,06,14,00,3.80
2021,12,06,14,01,3.80
2021,12,06,14,02,3.70
2021,12,06,14,03,3.70
2021,12,06,14,04,3.70
2021,12,06,14,05,3.70
2021,12,06,14,06,3.70
2021,12,06,14,07,3.70
2021,12,06,14,08,3.70
2021,12,06,14,09,3.70
2021,12,06,14,10,3.70
2021,12,06,14,11,3.70
2021,12,06,14,12,3.70
2021,12,06,14,13,3.70
2021,12,06,14,14,3.70
2021,12,06,14,15,3.80
2021,12,06,14,16,3.80
2021,12,06,14,17,3.70
2021,12,06,14,18,3.70
2021,12,06,14,19,3.70
2021,12,06,14,20,3.70
2021,12,06,14,21,3.70
2021,12,06,14,22,3.70
2021,12,06,14,23,3.70
2021,12,06,14,24,3.70
2021,12,06,14,25,3.70
2021,12,06,14,26,3.70
2021,12,06,14,27,3.70
2021,12,06,14,28,3.70
2021,12,06,14,29,3.70
2021,12,06,14,30,3.70
2021,12,06,14,31,3.70
2021,12,06,14,32,3.70
2021,12,06,14,33,3.70
2021,12,06,14,34,3.70
2021,12,06,14,35,3.70
2021,12,06,14,36,3.70
2021,12,06,14,37,3.70
2021,12,06,14,38,3.80
2021,12,06,14,39,3.80
2021,12,06,14,40,3.80
2021,12,06,14,41,3.70
2021,12,06,14,42,3.70
2021,12,06,14,43,3.70
2021,12,06,14,44,3.70
2021,12,06,14,45,3.70
2021,12,06,14,46,3.70
2021,12,06,14,47,3.70
2021,12,06,14,48,3.70
2021,12,06,14,49,3.70
2021,12,06,14,50,3.70
2021,12,06,14,51,3.70
2021,12,06,14,52,3.70
2021,12,06,14,53,3.70
2021,12,06,14,54,3.70
2021,12,06,14,55,3.70
2021,12,06,14,56,3.70
2021,12,06,14,57,3.70
2021,12,06,14,58,3.70
2021,12,06,14,59,3.70
2021,12,06,15,00,3.70
2021,12,06,15,01,3.70
2021,12,06,15,02,3.70
2021,12,06,15,03,3.70
2021,12,06,15,04,3.70
2021,12,06,15,05,3.70
2021,12,06,15,06,3.70
2021,12,06,15,07,3.70
2021,12,06,15,08,3.70
2021,12,06,15,09,3.70
2021,12,06,15,10,3.70
2021,12,06,15,11,3.70
2021,12,06,15,12,3.70
2021,12,06,15,13,3.70
2021,12,06,15,14,3.70
2021,12,06,15,15,3.70
2021,12,06,15,16,3.70
2021,12,06,15,17,3.70
2021,12,06,15,18,3.70
2021,12,06,15,19,3.70
2021,12,06,15,20,3.70
2021,12,06,15,21,3.70
2021,12,06,15,22,3.70
2021,12,06,15,23,3.70
2021,12,06,15,24,3.70
2021,12,06,15,25,3.70
2021,12,06,15,26,3.70
2021,12,06,15,27,3.70
2021,12,06,15,28,3.70
2021,12,06,15,29,3.70
2021,12,06,15,30,3.70
2021,12,06,15,31,3.70
2021,12,06,15,32,3.70
2021,12,06,15,33,3.70
2021,12,06,15,34,3.70
2021,12,06,15,35,3.70
2021,12,06,15,36,3.70
2021,12,06,15,37,3.70
2021,12,06,15,38,3.70
2021,12,06,15,39,3.70
2021,12,06,15,40,3.80
2021,12,06,15,41,3.80
2021,12,06,15,42,3.70
2021,12,06,15,43,3.70
2021,12,06,15,44,3.70
2021,12,06,15,45,3.70
2021,12,06,15,46,3.70
2021,12,06,15,47,3.70
2021,12,06,15,48,3.70
2021,12,06,15,49,3.70
2021,12,06,15,50,3.70
2021,12,06,15,51,3.70
2021,12,06,15,52,3.80
2021,12,06,15,53,3.80
2021,12,06,15,54,3.80
2021,12,06,15,55,3.80
2021,12,06,15,56,3.80
2021,12,06,15,57,3.70
2021,12,06,15,58,3.70
2021,12,06,15,59,3.70
2021,12,06,16,00,3.80
2021,12,06,16,01,3.80
2021,12,06,16,02,3.80
2021,12,06,16,03,3.80
2021,12,06,16,04,3.80
2021,12,06,16,05,3.80
2021,12,06,16,06,3.70
2021,12,06,16,07,3.70
2021,12,06,16,08,3.70
2021,12,06,16,09,3.80
2021,12,06,16,10,3.70
2021,12,06,16,11,3.70
2021,12,06,16,12,3.70
2021,12,06,16,13,3.70
2021,12,06,16,14,3.70
2021,12,06,16,15,3.70
2021,12,06,16,16,3.70
2021,12,06,16,17,3.70
2021,12,06,16,18,3.70
2021,12,06,16,19,3.70
2021,12,06,16,20,3.80
2021,12,06,16,21,3.80
2021,12,06,16,22,3.80
2021,12,06,16,23,3.80
2021,12,06,16,24,3.80
2021,12,06,16,25,3.80
2021,12,06,16,26,3.80
2021,12,06,16,27,3.80
2021,12,06,16,28,3.80
2021,12,06,16,29,3.80
2021,12,06,16,30,3.80
2021,12,06,16,31,3.80
2021,12,06,16,32,3.80
2021,12,06,16,33,3.80
2021,12,06,16,34,3.80
2021,12,06,16,35,3.80
2021,12,06,16,36,3.80
2021,12,06,16,37,3.80
2021,12,06,16,38,3.80
2021,12,06,16,39,3.80
2021,12,06,16,40,3.80
2021,12,06,16,41,3.80
2021,12,06,16,42,3.80
2021,12,06,16,43,3.80
2021,12,06,16,44,3.80
2021,12,06,16,45,3.80
2021,12,06,16,46,3.80
2021,12,06,16,47,3.80
2021,12,06,16,48,3.80
2021,12,06,16,49,3.90
2021,12,06,16,50,3.90
2021,12,06,16,51,3.90
2021,12,06,16,52,3.90
2021,12,06,16,53,3.90
2021,12,06,16,54,3.90
2021,12,06,16,55,3.90
2021,12,06,16,56,3.90
2021,12,06,16,57,3.90
2021,12,06,16,58,3.90
2021,12,06,16,59,3.90
2021,12,06,17,00,3.90
2021,12,06,17,01,3.90
2021,12,06,17,02,3.90
2021,12,06,17,03,3.90
2021,12,06,17,04,3.90
2021,12,06,17,05,3.90
2021,12,06,17,06,3.90
2021,12,06,17,07,3.90
2021,12,06,17,08,3.90
2021,12,06,17,09,3.90
2021,12,06,17,10,3.90
2021,12,06,17,11,3.90
2021,12,06,17,12,3.90
2021,12,06,17,13,3.90
2021,12,06,17,14,3.90
2021,12,06,17,15,3.90
2021,12,06,17,16,3.90
2021,12,06,17,17,3.80
2021,12,06,17,18,3.80
2021,12,06,17,19,3.80
2021,12,06,17,20,3.80
2021,12,06,17,21,3.80
2021,12,06,17,22,3.80
2021,12,06,17,23,3.90
2021,12,06,17,24,3.90
2021,12,06,17,25,3.90
2021,12,06,17,26,3.90
2021,12,06,17,27,3.90
2021,12,06,17,28,3.90
2021,12,06,17,29,3.80
2021,12,06,17,30,3.80
2021,12,06,17,31,3.80
2021,12,06,17,32,3.80
2021,12,06,17,33,3.80
2021,12,06,17,34,3.80
2021,12,06,17,35,3.80
2021,12,06,17,36,3.80
2021,12,06,17,37,3.80
2021,12,06,17,38,3.80
2021,12,06,17,39,3.80
2021,12,06,17,40,3.80
2021,12,06,17,41,3.80
2021,12,06,17,42,3.80
2021,12,06,17,43,3.80
2021,12,06,17,44,3.80
2021,12,06,17,45,3.80
2021,12,06,17,46,3.80
2021,12,06,17,47,3.80
2021,12,06,17,48,3.80
2021,12,06,17,49,3.80
2021,12,06,17,50,3.80
2021,12,06,17,51,3.80
2021,12,06,17,52,3.80
2021,12,06,17,53,3.80
2021,12,06,17,54,3.80
2021,12,06,17,55,3.80
2021,12,06,17,56,3.80
2021,12,06,17,57,3.90
2021,12,06,17,58,3.90
2021,12,06,17,59,3.90
2021,12,06,18,00,3.90
2021,12,06,18,01,3.90
2021,12,06,18,02,3.90
2021,12,06,18,03,3.90
2021,12,06,18,04,3.90
2021,12,06,18,05,3.90
2021,12,06,18,06,3.90
2021,12,06,18,07,3.90
2021,12,06,18,08,3.90
2021,12,06,18,09,3.80